Time,TemperatureF,DewpointF,PressureIn,WindDirection,WindDirectionDegrees,WindSpeedMPH,WindSpeedGustMPH,Humidity,HourlyPrecipIn,Conditions,Clouds,dailyrainin,SoftwareType,DateUTC
2013-12-21 00:01:00,41.8,0.0,29.96,SSE,159,2.5,2.5,0,0.00,,OVC100,0.00,VWS V14.01,2013-12-21 05:01:00,
2013-12-21 00:03:00,41.9,0.0,29.96,SSE,159,2.5,2.5,0,0.00,,OVC100,0.00,VWS V14.01,2013-12-21 05:03:00,
2013-12-21 00:05:00,41.9,0.0,29.96,SSE,159,2.5,2.5,0,0.00,,OVC100,0.00,VWS V14.01,2013-12-21 05:05:00,
2013-12-21 00:11:00,41.9,0.0,29.96,SSE,159,2.5,2.5,0,0.00,,OVC100,0.00,VWS V14.01,2013-12-21 05:11:00,
2013-12-21 00:17:00,42.2,0.0,29.96,SSE,159,2.5,2.5,0,0.00,,OVC100,0.00,VWS V14.01,2013-12-21 05:17:00,
2013-12-21 00:23:00,42.3,0.0,29.95,SSE,159,2.5,2.5,0,0.00,,OVC100,0.00,VWS V14.01,2013-12-21 05:23:00,
2013-12-21 00:25:00,42.3,0.0,29.95,SSE,159,2.5,2.5,0,0.00,,OVC100,0.00,VWS V14.01,2013-12-21 05:25:00,
2013-12-21 00:31:00,42.4,0.0,29.95,SSE,159,2.5,2.5,0,0.00,,OVC100,0.00,VWS V14.01,2013-12-21 05:31:00,
2013-12-21 00:35:00,42.6,0.0,29.95,SSE,159,2.5,2.5,0,0.00,,OVC100,0.00,VWS V14.01,2013-12-21 05:35:00,
2013-12-21 00:41:00,42.5,0.0,29.95,SSE,159,2.5,2.5,0,0.00,,OVC100,0.00,VWS V14.01,2013-12-21 05:41:00,
2013-12-21 00:47:00,42.8,0.0,29.96,SSE,159,2.5,2.5,0,0.00,,OVC100,0.00,VWS V14.01,2013-12-21 05:47:00,
2013-12-21 00:53:00,42.8,0.0,29.96,SSE,159,2.5,2.5,0,0.00,,OVC100,0.00,VWS V14.01,2013-12-21 05:53:00,
2013-12-21 00:59:00,42.9,0.0,29.95,SSE,159,2.5,2.5,0,0.00,,OVC100,0.00,VWS V14.01,2013-12-21 05:59:00,
2013-12-21 01:05:00,42.9,0.0,29.96,SSE,159,2.5,2.5,0,0.00,,OVC110,0.00,VWS V14.01,2013-12-21 06:05:00,
2013-12-21 01:11:00,43.0,0.0,29.95,SSE,159,2.5,2.5,0,0.00,,OVC110,0.00,VWS V14.01,2013-12-21 06:11:00,
2013-12-21 01:17:00,43.1,0.0,29.96,SSE,159,2.5,2.5,0,0.00,,OVC110,0.00,VWS V14.01,2013-12-21 06:17:00,
2013-12-21 01:23:00,43.2,0.0,29.96,SSE,159,2.5,2.5,0,0.00,,OVC110,0.00,VWS V14.01,2013-12-21 06:23:00,
2013-12-21 01:29:00,43.3,0.0,29.96,SSE,159,2.5,2.5,0,0.00,,OVC110,0.00,VWS V14.01,2013-12-21 06:29:00,
2013-12-21 01:35:00,43.4,0.0,29.96,SSE,159,2.5,2.5,0,0.00,,OVC110,0.00,VWS V14.01,2013-12-21 06:35:00,
2013-12-21 01:41:00,43.5,0.0,29.96,SSE,159,2.5,2.5,0,0.00,,OVC110,0.00,VWS V14.01,2013-12-21 06:41:00,
2013-12-21 01:43:00,43.5,0.0,29.96,SSE,159,2.5,2.5,0,0.00,,OVC110,0.00,VWS V14.01,2013-12-21 06:43:00,
2013-12-21 01:49:00,43.6,0.0,29.95,SSE,159,2.5,2.5,0,0.00,,OVC110,0.00,VWS V14.01,2013-12-21 06:49:00,
2013-12-21 01:55:00,43.7,0.0,29.95,SSE,159,2.5,2.5,0,0.00,,OVC110,0.00,VWS V14.01,2013-12-21 06:55:00,
2013-12-21 02:01:00,43.7,0.0,29.95,SSE,159,2.5,2.5,0,0.00,,OVC055,0.00,VWS V14.01,2013-12-21 07:01:00,
2013-12-21 02:07:00,43.7,0.0,29.95,SSE,159,2.5,2.5,0,0.00,,OVC055,0.00,VWS V14.01,2013-12-21 07:07:00,
2013-12-21 02:13:00,43.7,0.0,29.95,SSE,159,2.5,2.5,0,0.00,,OVC055,0.00,VWS V14.01,2013-12-21 07:13:00,
2013-12-21 02:19:00,43.7,0.0,29.94,SSE,159,2.5,2.5,0,0.00,,OVC055,0.00,VWS V14.01,2013-12-21 07:19:00,
2013-12-21 02:25:00,43.7,0.0,29.94,SSE,159,2.5,2.5,0,0.00,,OVC055,0.00,VWS V14.01,2013-12-21 07:25:00,
2013-12-21 02:31:00,43.8,0.0,29.94,SSE,159,2.5,2.5,0,0.00,,OVC055,0.00,VWS V14.01,2013-12-21 07:31:00,
2013-12-21 02:37:00,43.7,0.0,29.95,SSE,159,2.5,2.5,0,0.00,,OVC055,0.00,VWS V14.01,2013-12-21 07:37:00,
2013-12-21 02:43:00,43.8,0.0,29.94,SSE,159,2.5,2.5,0,0.00,,OVC055,0.00,VWS V14.01,2013-12-21 07:43:00,
2013-12-21 02:49:00,43.9,0.0,29.95,SSE,159,2.5,2.5,0,0.00,,OVC055,0.00,VWS V14.01,2013-12-21 07:49:00,
2013-12-21 02:55:00,44.0,0.0,29.94,SSE,159,2.5,2.5,0,0.00,,OVC055,0.00,VWS V14.01,2013-12-21 07:55:00,
2013-12-21 03:01:00,44.0,0.0,29.94,SSE,159,2.5,2.5,0,0.00,,OVC110,0.00,VWS V14.01,2013-12-21 08:01:00,
2013-12-21 03:07:00,44.1,0.0,29.94,SSE,159,2.5,2.5,0,0.00,,OVC110,0.00,VWS V14.01,2013-12-21 08:07:00,
2013-12-21 03:13:00,44.2,0.0,29.94,SSE,159,2.5,2.5,0,0.00,,OVC110,0.00,VWS V14.01,2013-12-21 08:13:00,
2013-12-21 03:19:00,44.3,0.0,29.94,SSE,159,2.5,2.5,0,0.00,,OVC110,0.00,VWS V14.01,2013-12-21 08:19:00,
2013-12-21 03:25:00,44.4,0.0,29.94,SSE,159,2.5,2.5,0,0.00,,OVC110,0.00,VWS V14.01,2013-12-21 08:25:00,
2013-12-21 03:31:00,44.5,0.0,29.93,SSE,159,2.5,2.5,0,0.00,,OVC110,0.00,VWS V14.01,2013-12-21 08:31:00,
2013-12-21 03:37:00,44.6,0.0,29.93,SSE,159,2.5,2.5,0,0.00,,OVC110,0.00,VWS V14.01,2013-12-21 08:37:00,
2013-12-21 03:43:00,44.7,0.0,29.93,SSE,159,2.5,2.5,0,0.00,,OVC110,0.00,VWS V14.01,2013-12-21 08:43:00,
2013-12-21 03:49:00,44.7,0.0,29.93,SSE,159,2.5,2.5,0,0.00,,OVC110,0.00,VWS V14.01,2013-12-21 08:49:00,
2013-12-21 03:55:00,44.9,0.0,29.93,SSE,159,2.5,2.5,0,0.00,,OVC110,0.00,VWS V14.01,2013-12-21 08:55:00,
2013-12-21 04:01:00,44.9,0.0,29.94,SSE,159,2.5,2.5,0,0.00,,SCT200,0.00,VWS V14.01,2013-12-21 09:01:00,
2013-12-21 04:07:00,44.9,0.0,29.94,SSE,159,2.5,2.5,0,0.00,,SCT200,0.00,VWS V14.01,2013-12-21 09:07:00,
2013-12-21 04:13:00,44.8,0.0,29.93,SSE,159,2.5,2.5,0,0.00,,SCT200,0.00,VWS V14.01,2013-12-21 09:13:00,
2013-12-21 04:19:00,44.8,0.0,29.94,SSE,159,2.5,2.5,0,0.00,,SCT200,0.00,VWS V14.01,2013-12-21 09:19:00,
2013-12-21 04:25:00,44.8,0.0,29.94,SSE,159,2.5,2.5,0,0.00,,SCT200,0.00,VWS V14.01,2013-12-21 09:25:00,
2013-12-21 04:31:00,44.8,0.0,29.94,SSE,159,2.5,2.5,0,0.00,,SCT200,0.00,VWS V14.01,2013-12-21 09:31:00,
2013-12-21 04:37:00,44.9,0.0,29.95,SSE,159,2.5,2.5,0,0.00,,SCT200,0.00,VWS V14.01,2013-12-21 09:37:00,
2013-12-21 04:43:00,44.9,0.0,29.95,SSE,159,2.5,2.5,0,0.00,,SCT200,0.00,VWS V14.01,2013-12-21 09:43:00,
2013-12-21 04:49:00,44.9,0.0,29.95,SSE,159,2.5,2.5,0,0.00,,SCT200,0.00,VWS V14.01,2013-12-21 09:49:00,
2013-12-21 04:55:00,44.8,0.0,29.94,SSE,159,2.5,2.5,0,0.00,,SCT200,0.00,VWS V14.01,2013-12-21 09:55:00,
2013-12-21 05:01:00,44.9,0.0,29.94,SSE,159,2.5,2.5,0,0.00,,FEW180,0.00,VWS V14.01,2013-12-21 10:01:00,
2013-12-21 05:07:00,44.9,0.0,29.94,SSE,159,2.5,2.5,0,0.00,,FEW180,0.00,VWS V14.01,2013-12-21 10:07:00,
2013-12-21 05:13:00,45.0,0.0,29.93,SSE,159,2.5,2.5,0,0.00,,FEW180,0.00,VWS V14.01,2013-12-21 10:13:00,
2013-12-21 05:19:00,44.9,0.0,29.94,SSE,159,2.5,2.5,0,0.00,,FEW180,0.00,VWS V14.01,2013-12-21 10:19:00,
2013-12-21 05:25:00,44.8,0.0,29.93,SSE,159,2.5,2.5,0,0.00,,FEW180,0.00,VWS V14.01,2013-12-21 10:25:00,
2013-12-21 05:31:00,44.8,0.0,29.95,SSE,159,2.5,2.5,0,0.00,,FEW180,0.00,VWS V14.01,2013-12-21 10:31:00,
2013-12-21 05:37:00,44.7,0.0,29.95,SSE,159,2.5,2.5,0,0.00,,FEW180,0.00,VWS V14.01,2013-12-21 10:37:00,
2013-12-21 05:43:00,44.7,0.0,29.95,SSE,159,2.5,2.5,0,0.00,,FEW180,0.00,VWS V14.01,2013-12-21 10:43:00,
2013-12-21 05:49:00,44.7,0.0,29.95,SSE,159,2.5,2.5,0,0.00,,FEW180,0.00,VWS V14.01,2013-12-21 10:49:00,
2013-12-21 05:55:00,44.7,0.0,29.95,SSE,159,2.5,2.5,0,0.00,,FEW180,0.00,VWS V14.01,2013-12-21 10:55:00,
2013-12-21 06:01:00,44.7,0.0,29.95,SSE,159,2.5,2.5,0,0.00,,CLR,0.00,VWS V14.01,2013-12-21 11:01:00,
2013-12-21 06:07:00,44.6,0.0,29.95,SSE,159,2.5,2.5,0,0.00,,CLR,0.00,VWS V14.01,2013-12-21 11:07:00,
2013-12-21 06:13:00,44.5,0.0,29.95,SSE,159,2.5,2.5,0,0.00,,CLR,0.00,VWS V14.01,2013-12-21 11:13:00,
2013-12-21 06:19:00,44.6,0.0,29.96,SSE,159,2.5,2.5,0,0.00,,CLR,0.00,VWS V14.01,2013-12-21 11:19:00,
2013-12-21 06:25:00,44.5,0.0,29.96,SSE,159,2.5,2.5,0,0.00,,CLR,0.00,VWS V14.01,2013-12-21 11:25:00,
2013-12-21 06:31:00,44.5,0.0,29.97,SSE,159,2.5,2.5,0,0.00,,CLR,0.00,VWS V14.01,2013-12-21 11:31:00,
2013-12-21 06:37:00,44.4,0.0,29.97,SSE,159,2.5,2.5,0,0.00,,CLR,0.00,VWS V14.01,2013-12-21 11:37:00,
2013-12-21 06:43:00,44.4,0.0,29.97,SSE,159,2.5,2.5,0,0.00,,CLR,0.00,VWS V14.01,2013-12-21 11:43:00,
2013-12-21 06:49:00,44.3,0.0,29.96,SSE,159,2.5,2.5,0,0.00,,CLR,0.00,VWS V14.01,2013-12-21 11:49:00,
2013-12-21 06:55:00,44.3,0.0,29.96,SSE,159,2.5,2.5,0,0.00,,CLR,0.00,VWS V14.01,2013-12-21 11:55:00,
2013-12-21 07:01:00,44.2,0.0,29.96,SSE,159,2.5,2.5,0,0.00,,SCT220,0.00,VWS V14.01,2013-12-21 12:01:00,
2013-12-21 07:07:00,44.3,0.0,29.96,SSE,159,2.5,2.5,0,0.00,,SCT220,0.00,VWS V14.01,2013-12-21 12:07:00,
2013-12-21 07:13:00,44.2,0.0,29.96,SSE,159,2.5,2.5,0,0.00,,SCT220,0.00,VWS V14.01,2013-12-21 12:13:00,
2013-12-21 07:19:00,44.4,0.0,29.96,SSE,159,2.5,2.5,0,0.00,,SCT220,0.00,VWS V14.01,2013-12-21 12:19:00,
2013-12-21 07:25:00,44.4,0.0,29.96,SSE,159,2.5,2.5,0,0.00,,SCT220,0.00,VWS V14.01,2013-12-21 12:25:00,
2013-12-21 07:31:00,44.4,0.0,29.97,SSE,159,2.5,2.5,0,0.00,,SCT220,0.00,VWS V14.01,2013-12-21 12:31:00,
2013-12-21 07:37:00,44.5,0.0,29.97,SSE,159,2.5,2.5,0,0.00,,SCT220,0.00,VWS V14.01,2013-12-21 12:37:00,
2013-12-21 07:43:00,44.6,0.0,29.97,SSE,159,2.5,2.5,0,0.00,,SCT220,0.00,VWS V14.01,2013-12-21 12:43:00,
2013-12-21 07:49:00,44.6,0.0,29.97,SSE,159,2.5,2.5,0,0.00,,SCT220,0.00,VWS V14.01,2013-12-21 12:49:00,
2013-12-21 07:55:00,44.8,0.0,29.97,SSE,159,2.5,2.5,0,0.00,,SCT220,0.00,VWS V14.01,2013-12-21 12:55:00,
2013-12-21 08:01:00,44.9,0.0,29.97,SSE,159,2.5,2.5,0,0.00,,BKN220,0.00,VWS V14.01,2013-12-21 13:01:00,
2013-12-21 08:07:00,45.0,0.0,29.97,SSE,159,2.5,2.5,0,0.00,,BKN220,0.00,VWS V14.01,2013-12-21 13:07:00,
2013-12-21 08:13:00,45.1,0.0,29.97,SSE,159,2.5,2.5,0,0.00,,BKN220,0.00,VWS V14.01,2013-12-21 13:13:00,
2013-12-21 08:19:00,45.2,0.0,29.97,SSE,159,2.5,2.5,0,0.00,,BKN220,0.00,VWS V14.01,2013-12-21 13:19:00,
2013-12-21 08:25:00,45.2,0.0,29.97,SSE,159,2.5,2.5,0,0.00,,BKN220,0.00,VWS V14.01,2013-12-21 13:25:00,
2013-12-21 08:31:00,45.4,0.0,29.98,SSE,159,2.5,2.5,0,0.00,,BKN220,0.00,VWS V14.01,2013-12-21 13:31:00,
2013-12-21 08:37:00,45.4,0.0,29.98,SSE,159,2.5,2.5,0,0.00,,BKN220,0.00,VWS V14.01,2013-12-21 13:37:00,
2013-12-21 08:43:00,45.7,0.0,29.98,SSE,159,2.5,2.5,0,0.00,,BKN220,0.00,VWS V14.01,2013-12-21 13:43:00,
2013-12-21 08:49:00,45.9,0.0,29.98,SSE,159,2.5,2.5,0,0.00,,BKN220,0.00,VWS V14.01,2013-12-21 13:49:00,
2013-12-21 08:55:00,46.1,0.0,29.98,SSE,159,2.5,2.5,0,0.00,,BKN220,0.00,VWS V14.01,2013-12-21 13:55:00,
2013-12-21 09:01:00,46.2,0.0,29.98,SSE,159,2.5,2.5,0,0.00,,BKN220,0.00,VWS V14.01,2013-12-21 14:01:00,
2013-12-21 09:07:00,46.5,0.0,29.98,SSE,159,2.5,2.5,0,0.00,,BKN220,0.00,VWS V14.01,2013-12-21 14:07:00,
2013-12-21 09:13:00,46.8,0.0,29.98,SSE,159,2.5,2.5,0,0.00,,BKN220,0.00,VWS V14.01,2013-12-21 14:13:00,
2013-12-21 09:19:00,47.2,0.0,29.99,SSE,159,2.5,2.5,0,0.00,,BKN220,0.00,VWS V14.01,2013-12-21 14:19:00,
2013-12-21 09:25:00,47.6,0.0,29.99,SSE,159,2.5,2.5,0,0.00,,BKN220,0.00,VWS V14.01,2013-12-21 14:25:00,
2013-12-21 09:31:00,48.0,0.0,29.98,SSE,159,2.5,2.5,0,0.00,,BKN220,0.00,VWS V14.01,2013-12-21 14:31:00,
2013-12-21 09:37:00,48.3,0.0,29.99,SSE,159,2.5,2.5,0,0.00,,BKN220,0.00,VWS V14.01,2013-12-21 14:37:00,
2013-12-21 09:43:00,48.6,0.0,29.99,SSE,159,2.5,2.5,0,0.00,,BKN220,0.00,VWS V14.01,2013-12-21 14:43:00,
2013-12-21 09:49:00,48.9,0.0,29.99,SSE,159,2.5,2.5,0,0.00,,BKN220,0.00,VWS V14.01,2013-12-21 14:49:00,
2013-12-21 09:55:00,49.4,0.0,29.99,SSE,159,2.5,2.5,0,0.00,,BKN220,0.00,VWS V14.01,2013-12-21 14:55:00,
2013-12-21 10:01:00,49.8,0.0,29.99,SSE,159,2.5,2.5,0,0.00,,BKN090,0.00,VWS V14.01,2013-12-21 15:01:00,
2013-12-21 10:07:00,50.2,0.0,29.99,SSE,159,2.5,2.5,0,0.00,,BKN090,0.00,VWS V14.01,2013-12-21 15:07:00,
2013-12-21 10:13:00,50.3,0.0,29.98,SSE,159,2.5,2.5,0,0.00,,BKN090,0.00,VWS V14.01,2013-12-21 15:13:00,
2013-12-21 10:19:00,50.7,0.0,29.98,SSE,159,2.5,2.5,0,0.00,,BKN090,0.00,VWS V14.01,2013-12-21 15:19:00,
2013-12-21 10:25:00,50.8,0.0,29.98,SSE,159,2.5,2.5,0,0.00,,BKN090,0.00,VWS V14.01,2013-12-21 15:25:00,
2013-12-21 10:31:00,51.0,0.0,29.98,SSE,159,2.5,2.5,0,0.00,,BKN090,0.00,VWS V14.01,2013-12-21 15:31:00,
2013-12-21 10:37:00,51.2,0.0,29.97,SSE,159,2.5,2.5,0,0.00,,BKN090,0.00,VWS V14.01,2013-12-21 15:37:00,
2013-12-21 10:43:00,51.4,0.0,29.97,SSE,159,2.5,2.5,0,0.00,,BKN090,0.00,VWS V14.01,2013-12-21 15:43:00,
2013-12-21 10:49:00,51.4,0.0,29.96,SSE,159,2.5,2.5,0,0.00,,BKN090,0.00,VWS V14.01,2013-12-21 15:49:00,
2013-12-21 10:55:00,51.5,0.0,29.96,SSE,159,2.5,2.5,0,0.00,,BKN090,0.00,VWS V14.01,2013-12-21 15:55:00,
2013-12-21 11:01:00,51.7,0.0,29.96,SSE,159,2.5,2.5,0,0.00,,BKN085,0.00,VWS V14.01,2013-12-21 16:01:00,
2013-12-21 11:07:00,51.8,0.0,29.96,SSE,159,2.5,2.5,0,0.00,,BKN085,0.00,VWS V14.01,2013-12-21 16:07:00,
2013-12-21 11:13:00,51.9,0.0,29.96,SSE,159,2.5,2.5,0,0.00,,BKN085,0.00,VWS V14.01,2013-12-21 16:13:00,
2013-12-21 11:19:00,51.9,0.0,29.95,SSE,159,2.5,2.5,0,0.00,,BKN085,0.00,VWS V14.01,2013-12-21 16:19:00,
2013-12-21 11:25:00,52.1,0.0,29.95,SSE,159,2.5,2.5,0,0.00,,BKN085,0.00,VWS V14.01,2013-12-21 16:25:00,
2013-12-21 11:31:00,52.1,0.0,29.95,SSE,159,2.5,2.5,0,0.00,,BKN085,0.00,VWS V14.01,2013-12-21 16:31:00,
2013-12-21 11:37:00,52.2,0.0,29.94,SSE,159,2.5,2.5,0,0.00,,BKN085,0.00,VWS V14.01,2013-12-21 16:37:00,
2013-12-21 11:43:00,52.2,0.0,29.94,SSE,159,2.5,2.5,0,0.00,,BKN085,0.00,VWS V14.01,2013-12-21 16:43:00,
2013-12-21 11:49:00,52.3,0.0,29.93,SSE,159,2.5,2.5,0,0.00,,BKN085,0.00,VWS V14.01,2013-12-21 16:49:00,
2013-12-21 11:55:00,52.4,0.0,29.93,SSE,159,2.5,2.5,0,0.00,,BKN085,0.00,VWS V14.01,2013-12-21 16:55:00,
2013-12-21 12:01:00,52.4,0.0,29.92,SSE,159,2.5,2.5,0,0.00,,OVC220,0.00,VWS V14.01,2013-12-21 17:01:00,
2013-12-21 12:07:00,52.5,0.0,29.92,SSE,159,2.5,2.5,0,0.00,,OVC220,0.00,VWS V14.01,2013-12-21 17:07:00,
2013-12-21 12:13:00,52.7,0.0,29.92,SSE,159,2.5,2.5,0,0.00,,OVC220,0.00,VWS V14.01,2013-12-21 17:13:00,
2013-12-21 12:19:00,52.9,0.0,29.92,SSE,159,2.5,2.5,0,0.00,,OVC220,0.00,VWS V14.01,2013-12-21 17:19:00,
2013-12-21 12:25:00,52.8,0.0,29.91,SSE,159,2.5,2.5,0,0.00,,OVC220,0.00,VWS V14.01,2013-12-21 17:25:00,
2013-12-21 12:31:00,52.9,0.0,29.91,SSE,159,2.5,2.5,0,0.00,,OVC220,0.00,VWS V14.01,2013-12-21 17:31:00,
2013-12-21 12:37:00,53.1,0.0,29.91,SSE,159,2.5,2.5,0,0.00,,OVC220,0.00,VWS V14.01,2013-12-21 17:37:00,
2013-12-21 12:43:00,53.2,0.0,29.91,SSE,159,2.5,2.5,0,0.00,,OVC220,0.00,VWS V14.01,2013-12-21 17:43:00,
2013-12-21 12:49:00,53.2,0.0,29.91,SSE,159,2.5,2.5,0,0.00,,OVC220,0.00,VWS V14.01,2013-12-21 17:49:00,
2013-12-21 12:55:00,53.3,0.0,29.90,SSE,159,2.5,2.5,0,0.00,,OVC220,0.00,VWS V14.01,2013-12-21 17:55:00,
2013-12-21 13:01:00,53.4,0.0,29.90,SSE,159,2.5,2.5,0,0.00,,OVC220,0.00,VWS V14.01,2013-12-21 18:01:00,
2013-12-21 13:07:00,53.6,0.0,29.90,SSE,159,2.5,2.5,0,0.00,,OVC220,0.00,VWS V14.01,2013-12-21 18:07:00,
2013-12-21 13:13:00,53.6,0.0,29.90,SSE,159,2.5,2.5,0,0.00,,OVC220,0.00,VWS V14.01,2013-12-21 18:13:00,
2013-12-21 13:19:00,53.8,0.0,29.89,SSE,159,2.5,2.5,0,0.00,,OVC220,0.00,VWS V14.01,2013-12-21 18:19:00,
2013-12-21 13:25:00,53.7,0.0,29.89,SSE,159,2.5,2.5,0,0.00,,OVC220,0.00,VWS V14.01,2013-12-21 18:25:00,
2013-12-21 13:31:00,53.9,0.0,29.89,SSE,159,2.5,2.5,0,0.00,,OVC220,0.00,VWS V14.01,2013-12-21 18:31:00,
2013-12-21 13:37:00,54.1,0.0,29.89,SSE,159,2.5,2.5,0,0.00,,OVC220,0.00,VWS V14.01,2013-12-21 18:37:00,
2013-12-21 13:43:00,54.1,0.0,29.89,SSE,159,2.5,2.5,0,0.00,,OVC220,0.00,VWS V14.01,2013-12-21 18:43:00,
2013-12-21 13:49:00,54.4,0.0,29.89,SSE,159,2.5,2.5,0,0.00,,OVC220,0.00,VWS V14.01,2013-12-21 18:49:00,
2013-12-21 13:55:00,54.5,0.0,29.89,SSE,159,2.5,2.5,0,0.00,,OVC220,0.00,VWS V14.01,2013-12-21 18:55:00,
2013-12-21 14:01:00,54.7,0.0,29.89,SSE,159,2.5,2.5,0,0.00,,OVC280,0.00,VWS V14.01,2013-12-21 19:01:00,
2013-12-21 14:07:00,54.7,0.0,29.90,SSE,159,2.5,2.5,0,0.00,,OVC280,0.00,VWS V14.01,2013-12-21 19:07:00,
2013-12-21 14:13:00,54.8,0.0,29.90,SSE,159,2.5,2.5,0,0.00,,OVC280,0.00,VWS V14.01,2013-12-21 19:13:00,
2013-12-21 14:19:00,54.8,0.0,29.89,SSE,159,2.5,2.5,0,0.00,,OVC280,0.00,VWS V14.01,2013-12-21 19:19:00,
2013-12-21 14:25:00,54.8,0.0,29.90,SSE,159,2.5,2.5,0,0.00,,OVC280,0.00,VWS V14.01,2013-12-21 19:25:00,
2013-12-21 14:31:00,54.7,0.0,29.90,SSE,159,2.5,2.5,0,0.00,,OVC280,0.00,VWS V14.01,2013-12-21 19:31:00,
2013-12-21 14:37:00,54.6,0.0,29.90,SSE,159,2.5,2.5,0,0.00,,OVC280,0.00,VWS V14.01,2013-12-21 19:37:00,
2013-12-21 14:43:00,54.6,0.0,29.90,SSE,159,2.5,2.5,0,0.00,,OVC280,0.00,VWS V14.01,2013-12-21 19:43:00,
2013-12-21 14:49:00,54.5,0.0,29.90,SSE,159,2.5,2.5,0,0.00,,OVC280,0.00,VWS V14.01,2013-12-21 19:49:00,
2013-12-21 14:55:00,54.5,0.0,29.90,SSE,159,2.5,2.5,0,0.00,,OVC280,0.00,VWS V14.01,2013-12-21 19:55:00,
2013-12-21 15:01:00,54.1,0.0,29.90,SSE,159,2.5,2.5,0,0.00,,OVC280,0.00,VWS V14.01,2013-12-21 20:01:00,
2013-12-21 15:07:00,54.1,0.0,29.90,SSE,159,2.5,2.5,0,0.00,,OVC280,0.00,VWS V14.01,2013-12-21 20:07:00,
2013-12-21 15:13:00,53.8,0.0,29.91,SSE,159,2.5,2.5,0,0.00,,OVC280,0.00,VWS V14.01,2013-12-21 20:13:00,
2013-12-21 15:19:00,53.6,0.0,29.90,SSE,159,2.5,2.5,0,0.00,,OVC280,0.00,VWS V14.01,2013-12-21 20:19:00,
2013-12-21 15:25:00,53.4,0.0,29.90,SSE,159,2.5,2.5,0,0.00,,OVC280,0.00,VWS V14.01,2013-12-21 20:25:00,
2013-12-21 15:31:00,53.2,0.0,29.90,SSE,159,2.5,2.5,0,0.00,,OVC280,0.00,VWS V14.01,2013-12-21 20:31:00,
2013-12-21 15:37:00,53.1,0.0,29.90,SSE,159,2.5,2.5,0,0.00,,OVC280,0.00,VWS V14.01,2013-12-21 20:37:00,
2013-12-21 15:43:00,52.8,0.0,29.90,SSE,159,2.5,2.5,0,0.00,,OVC280,0.00,VWS V14.01,2013-12-21 20:43:00,
2013-12-21 15:49:00,52.6,0.0,29.90,SSE,159,2.5,2.5,0,0.00,,OVC280,0.00,VWS V14.01,2013-12-21 20:49:00,
2013-12-21 15:55:00,52.5,0.0,29.90,SSE,159,2.5,2.5,0,0.00,,OVC280,0.00,VWS V14.01,2013-12-21 20:55:00,
2013-12-21 16:01:00,52.4,0.0,29.90,SSE,159,2.5,2.5,0,0.00,,OVC280,0.00,VWS V14.01,2013-12-21 21:01:00,
2013-12-21 16:07:00,52.3,0.0,29.91,SSE,159,2.5,2.5,0,0.00,,OVC280,0.00,VWS V14.01,2013-12-21 21:07:00,
2013-12-21 16:13:00,52.2,0.0,29.90,SSE,159,2.5,2.5,0,0.00,,OVC280,0.00,VWS V14.01,2013-12-21 21:13:00,
2013-12-21 16:19:00,52.0,0.0,29.90,SSE,159,2.5,2.5,0,0.00,,OVC280,0.00,VWS V14.01,2013-12-21 21:19:00,
2013-12-21 16:25:00,52.0,0.0,29.90,SSE,159,2.5,2.5,0,0.00,,OVC280,0.00,VWS V14.01,2013-12-21 21:25:00,
2013-12-21 16:31:00,51.7,0.0,29.90,SSE,159,2.5,2.5,0,0.00,,OVC280,0.00,VWS V14.01,2013-12-21 21:31:00,
2013-12-21 16:37:00,51.6,0.0,29.90,SSE,159,2.5,2.5,0,0.00,,OVC280,0.00,VWS V14.01,2013-12-21 21:37:00,
2013-12-21 16:43:00,51.4,0.0,29.90,SSE,159,2.5,2.5,0,0.00,,OVC280,0.00,VWS V14.01,2013-12-21 21:43:00,
2013-12-21 16:49:00,51.3,0.0,29.90,SSE,159,2.5,2.5,0,0.00,,OVC280,0.00,VWS V14.01,2013-12-21 21:49:00,
2013-12-21 16:55:00,51.3,0.0,29.90,SSE,159,2.5,2.5,0,0.00,,OVC280,0.00,VWS V14.01,2013-12-21 21:55:00,
2013-12-21 17:01:00,51.1,0.0,29.90,SSE,159,2.5,2.5,0,0.00,,BKN280,0.00,VWS V14.01,2013-12-21 22:01:00,
2013-12-21 17:07:00,51.0,0.0,29.90,SSE,159,2.5,2.5,0,0.00,,BKN280,0.00,VWS V14.01,2013-12-21 22:07:00,
2013-12-21 17:13:00,51.1,0.0,29.91,SSE,159,2.5,2.5,0,0.00,,BKN280,0.00,VWS V14.01,2013-12-21 22:13:00,
2013-12-21 17:19:00,51.0,0.0,29.91,SSE,159,2.5,2.5,0,0.00,,BKN280,0.00,VWS V14.01,2013-12-21 22:19:00,
2013-12-21 17:25:00,50.9,0.0,29.92,SSE,159,2.5,2.5,0,0.00,,BKN280,0.00,VWS V14.01,2013-12-21 22:25:00,
2013-12-21 17:31:00,50.9,0.0,29.92,SSE,159,2.5,2.5,0,0.00,,BKN280,0.00,VWS V14.01,2013-12-21 22:31:00,
2013-12-21 17:37:00,50.9,0.0,29.93,SSE,159,2.5,2.5,0,0.00,,BKN280,0.00,VWS V14.01,2013-12-21 22:37:00,
2013-12-21 17:43:00,51.1,0.0,29.92,SSE,159,2.5,2.5,0,0.00,,BKN280,0.00,VWS V14.01,2013-12-21 22:43:00,
2013-12-21 17:49:00,51.1,0.0,29.92,SSE,159,2.5,2.5,0,0.00,,BKN280,0.00,VWS V14.01,2013-12-21 22:49:00,
2013-12-21 17:55:00,51.1,0.0,29.92,SSE,159,2.5,2.5,0,0.00,,BKN280,0.00,VWS V14.01,2013-12-21 22:55:00,
2013-12-21 18:01:00,51.1,0.0,29.92,SSE,159,2.5,2.5,0,0.00,,OVC280,0.00,VWS V14.01,2013-12-21 23:01:00,
2013-12-21 18:07:00,51.1,0.0,29.92,SSE,159,2.5,2.5,0,0.00,,OVC280,0.00,VWS V14.01,2013-12-21 23:07:00,
2013-12-21 18:13:00,51.1,0.0,29.92,SSE,159,2.5,2.5,0,0.00,,OVC280,0.00,VWS V14.01,2013-12-21 23:13:00,
2013-12-21 18:19:00,51.1,0.0,29.92,SSE,159,2.5,2.5,0,0.00,,OVC280,0.00,VWS V14.01,2013-12-21 23:19:00,
2013-12-21 18:25:00,51.0,0.0,29.92,SSE,159,2.5,2.5,0,0.00,,OVC280,0.00,VWS V14.01,2013-12-21 23:25:00,
2013-12-21 18:31:00,51.2,0.0,29.92,SSE,159,2.5,2.5,0,0.00,,OVC280,0.00,VWS V14.01,2013-12-21 23:31:00,
2013-12-21 18:37:00,51.1,0.0,29.92,SSE,159,2.5,2.5,0,0.00,,OVC280,0.00,VWS V14.01,2013-12-21 23:37:00,
2013-12-21 18:43:00,51.2,0.0,29.93,SSE,159,2.5,2.5,0,0.00,,OVC280,0.00,VWS V14.01,2013-12-21 23:43:00,
2013-12-21 18:49:00,51.2,0.0,29.93,SSE,159,2.5,2.5,0,0.00,,OVC280,0.00,VWS V14.01,2013-12-21 23:49:00,
2013-12-21 18:55:00,51.1,0.0,29.93,SSE,159,2.5,2.5,0,0.00,,OVC280,0.00,VWS V14.01,2013-12-21 23:55:00,
2013-12-21 19:01:00,51.2,0.0,29.93,SSE,159,2.5,2.5,0,0.00,,OVC280,0.00,VWS V14.01,2013-12-22 00:01:00,
2013-12-21 19:07:00,51.1,0.0,29.93,SSE,159,2.5,2.5,0,0.00,,OVC280,0.00,VWS V14.01,2013-12-22 00:07:00,
2013-12-21 19:13:00,51.1,0.0,29.93,SSE,159,2.5,2.5,0,0.00,,OVC280,0.00,VWS V14.01,2013-12-22 00:13:00,
2013-12-21 19:19:00,51.0,0.0,29.94,SSE,159,2.5,2.5,0,0.00,,OVC280,0.00,VWS V14.01,2013-12-22 00:19:00,
2013-12-21 19:25:00,51.0,0.0,29.93,SSE,159,2.5,2.5,0,0.00,,OVC280,0.00,VWS V14.01,2013-12-22 00:25:00,
2013-12-21 19:31:00,50.9,0.0,29.94,SSE,159,2.5,2.5,0,0.00,,OVC280,0.00,VWS V14.01,2013-12-22 00:31:00,
2013-12-21 19:37:00,50.9,0.0,29.94,SSE,159,2.5,2.5,0,0.00,,OVC280,0.00,VWS V14.01,2013-12-22 00:37:00,
2013-12-21 19:43:00,50.8,0.0,29.94,SSE,159,2.5,2.5,0,0.00,,OVC280,0.00,VWS V14.01,2013-12-22 00:43:00,
2013-12-21 19:49:00,50.9,0.0,29.94,SSE,159,2.5,2.5,0,0.00,,OVC280,0.00,VWS V14.01,2013-12-22 00:49:00,
2013-12-21 19:55:00,51.1,0.0,29.95,SSE,159,2.5,2.5,0,0.00,,OVC280,0.00,VWS V14.01,2013-12-22 00:55:00,
2013-12-21 20:01:00,51.0,0.0,29.94,SSE,159,2.5,2.5,0,0.00,,OVC110,0.00,VWS V14.01,2013-12-22 01:01:00,
2013-12-21 20:07:00,51.2,0.0,29.94,SSE,159,2.5,2.5,0,0.00,,OVC110,0.00,VWS V14.01,2013-12-22 01:07:00,
2013-12-21 20:13:00,51.1,0.0,29.94,SSE,159,2.5,2.5,0,0.00,,OVC110,0.00,VWS V14.01,2013-12-22 01:13:00,
2013-12-21 20:19:00,51.1,0.0,29.94,SSE,159,2.5,2.5,0,0.00,,OVC110,0.00,VWS V14.01,2013-12-22 01:19:00,
2013-12-21 20:25:00,51.1,0.0,29.94,SSE,159,2.5,2.5,0,0.00,,OVC110,0.00,VWS V14.01,2013-12-22 01:25:00,
2013-12-21 20:31:00,51.1,0.0,29.94,SSE,159,2.5,2.5,0,0.00,,OVC110,0.00,VWS V14.01,2013-12-22 01:31:00,
2013-12-21 20:37:00,51.2,0.0,29.93,SSE,159,2.5,2.5,0,0.00,,OVC110,0.00,VWS V14.01,2013-12-22 01:37:00,
2013-12-21 20:43:00,51.2,0.0,29.92,SSE,159,2.5,2.5,0,0.00,,OVC110,0.00,VWS V14.01,2013-12-22 01:43:00,
2013-12-21 20:49:00,51.3,0.0,29.93,SSE,159,2.5,2.5,0,0.00,,OVC110,0.00,VWS V14.01,2013-12-22 01:49:00,
2013-12-21 20:55:00,51.3,0.0,29.93,SSE,159,2.5,2.5,0,0.00,,OVC110,0.00,VWS V14.01,2013-12-22 01:55:00,
2013-12-21 21:01:00,51.3,0.0,29.92,SSE,159,2.5,2.5,0,0.00,,OVC250,0.00,VWS V14.01,2013-12-22 02:01:00,
2013-12-21 21:07:00,51.3,0.0,29.92,SSE,159,2.5,2.5,0,0.00,,OVC250,0.00,VWS V14.01,2013-12-22 02:07:00,
2013-12-21 21:13:00,51.3,0.0,29.91,SSE,159,2.5,2.5,0,0.00,,OVC250,0.00,VWS V14.01,2013-12-22 02:13:00,
2013-12-21 21:19:00,51.2,0.0,29.92,SSE,159,2.5,2.5,0,0.00,,OVC250,0.00,VWS V14.01,2013-12-22 02:19:00,
2013-12-21 21:25:00,51.3,0.0,29.93,SSE,159,2.5,2.5,0,0.00,,OVC250,0.00,VWS V14.01,2013-12-22 02:25:00,
2013-12-21 21:31:00,51.4,0.0,29.93,SSE,159,2.5,2.5,0,0.00,,OVC250,0.00,VWS V14.01,2013-12-22 02:31:00,
2013-12-21 21:37:00,51.5,0.0,29.93,SSE,159,2.5,2.5,0,0.00,,OVC250,0.00,VWS V14.01,2013-12-22 02:37:00,
2013-12-21 21:43:00,51.5,0.0,29.93,SSE,159,2.5,2.5,0,0.00,,OVC250,0.00,VWS V14.01,2013-12-22 02:43:00,
2013-12-21 21:49:00,51.4,0.0,29.93,SSE,159,2.5,2.5,0,0.00,,OVC250,0.00,VWS V14.01,2013-12-22 02:49:00,
2013-12-21 21:55:00,51.8,0.0,29.92,SSE,159,2.5,2.5,0,0.00,,OVC250,0.00,VWS V14.01,2013-12-22 02:55:00,
2013-12-21 22:01:00,51.7,0.0,29.92,SSE,159,2.5,2.5,0,0.00,,OVC110,0.00,VWS V14.01,2013-12-22 03:01:00,
2013-12-21 22:07:00,51.8,0.0,29.92,SSE,159,2.5,2.5,0,0.00,,OVC110,0.00,VWS V14.01,2013-12-22 03:07:00,
2013-12-21 22:13:00,51.8,0.0,29.92,SSE,159,2.5,2.5,0,0.00,,OVC110,0.00,VWS V14.01,2013-12-22 03:13:00,
2013-12-21 22:19:00,51.8,0.0,29.92,SSE,159,2.5,2.5,0,0.00,,OVC110,0.00,VWS V14.01,2013-12-22 03:19:00,
2013-12-21 22:25:00,51.9,0.0,29.92,SSE,159,2.5,2.5,0,0.00,,OVC110,0.00,VWS V14.01,2013-12-22 03:25:00,
2013-12-21 22:31:00,51.9,0.0,29.92,SSE,159,2.5,2.5,0,0.00,,OVC110,0.00,VWS V14.01,2013-12-22 03:31:00,
2013-12-21 22:37:00,51.7,0.0,29.92,SSE,159,2.5,2.5,0,0.00,,OVC110,0.00,VWS V14.01,2013-12-22 03:37:00,
2013-12-21 22:43:00,51.9,0.0,29.92,SSE,159,2.5,2.5,0,0.00,,OVC110,0.00,VWS V14.01,2013-12-22 03:43:00,
2013-12-21 22:49:00,51.8,0.0,29.92,SSE,159,2.5,2.5,0,0.00,,OVC110,0.00,VWS V14.01,2013-12-22 03:49:00,
2013-12-21 22:55:00,51.7,0.0,29.93,SSE,159,2.5,2.5,0,0.00,,OVC110,0.00,VWS V14.01,2013-12-22 03:55:00,
2013-12-21 23:01:00,51.8,0.0,29.93,SSE,159,2.5,2.5,0,0.00,,OVC090,0.00,VWS V14.01,2013-12-22 04:01:00,
2013-12-21 23:07:00,51.9,0.0,29.93,SSE,159,2.5,2.5,0,0.00,,OVC090,0.00,VWS V14.01,2013-12-22 04:07:00,
2013-12-21 23:13:00,52.0,0.0,29.93,SSE,159,2.5,2.5,0,0.00,,OVC090,0.00,VWS V14.01,2013-12-22 04:13:00,
2013-12-21 23:19:00,52.0,0.0,29.92,SSE,159,2.5,2.5,0,0.00,,OVC090,0.00,VWS V14.01,2013-12-22 04:19:00,
2013-12-21 23:25:00,52.0,0.0,29.92,SSE,159,2.5,2.5,0,0.00,,OVC090,0.00,VWS V14.01,2013-12-22 04:25:00,
2013-12-21 23:31:00,52.5,0.0,29.92,SSE,159,2.5,2.5,0,0.00,,OVC090,0.00,VWS V14.01,2013-12-22 04:31:00,
2013-12-21 23:37:00,52.5,0.0,29.92,SSE,159,2.5,2.5,0,0.00,,OVC090,0.00,VWS V14.01,2013-12-22 04:37:00,
2013-12-21 23:43:00,52.9,0.0,29.92,SSE,159,2.5,2.5,0,0.00,,OVC090,0.00,VWS V14.01,2013-12-22 04:43:00,
2013-12-21 23:49:00,53.0,0.0,29.92,SSE,159,2.5,2.5,0,0.00,,OVC090,0.00,VWS V14.01,2013-12-22 04:49:00,
2013-12-21 23:55:00,53.2,0.0,29.92,SSE,159,2.5,2.5,0,0.00,,OVC090,0.00,VWS V14.01,2013-12-22 04:55:00,